Home > Weather > Niamey > Past weeks

Flag for Niger Weather for the Past 2 Weeks in Niamey, Niger

Now
88 °F

Clear.


Feels Like: 84 °F
Forecast: 65 / 92 °F
Wind: 12 mph from Northeast

Location: Niamey-Aero

Current Time: Feb 8, 2016 at 7:00:58 PM

Latest Report: Feb 8, 2016 at 6:00 PM


Visibility: 5 mi

Pressure: 30.01 "Hg

Humidity: 9%

Dew point: 23 °F

Location of NiameyLocation

Historic Weather in Niamey — Graph

°F

Niamey Temperature Yesterday

Maximum temperature yesterday: 90 °F (at 3:00 PM)
Minimum temperature yesterday: 66 °F (at 8:00 AM)
Average temperature yesterday: 78 °F

High & Low Weather Summary for the Past Weeks

 TemperatureHumidityPressure
High91 °F (Feb 4, 4:00 PM)30% (Feb 1, 2:00 PM)30.18 "Hg (Feb 1, 2:00 PM)
Low61 °F (Feb 2, 6:00 AM)6% (Jan 31, 5:00 PM)29.86 "Hg (Feb 2, 4:00 PM)
Average76 °F15%30.02 "Hg
* Reported Jan 24 5:00 PM — Feb 8 5:00 PM, Niamey, Weather by CustomWeather, © 2016

Note: Actual official high and low records may vary slightly from our data, if they occured in-between our weather recording intervals... More about our weather records

Advertising

Niamey Weather History for the Previous 24 Hours

 ConditionsComfort  
Time TempWeatherWind HumidityBarometerVisibility
5:00 PM
Mon, Feb 8
90 °FClear.10 mph9%29.98 "Hg4 mi
4:00 PM91 °FClear.12 mph9%29.98 "Hg4 mi
3:00 PM90 °FClear.13 mph9%30.01 "Hg4 mi
2:00 PM90 °FClear.15 mph9%30.04 "Hg4 mi
1:00 PM88 °FLow level haze.16 mph11%30.07 "Hg3 mi
12:00 PM84 °FLow level haze.16 mph12%30.09 "Hg3 mi
11:00 AM81 °FLow level haze.18 mph14%30.12 "Hg3 mi
10:00 AM77 °FClear.15 mph17%30.12 "Hg4 mi
9:00 AM72 °FClear.9 mph20%30.09 "Hg5 mi
8:00 AM64 °FSunny.7 mph26%30.07 "Hg10 mi
7:00 AM64 °FClear.6 mph28%30.04 "Hg4 mi
6:00 AM64 °FClear.6 mph26%30.04 "Hg4 mi
5:00 AM66 °FClear.7 mph26%30.01 "Hg4 mi
4:00 AM66 °FClear.6 mph26%30.01 "Hg4 mi
3:00 AM70 °FClear.7 mph23%30.01 "Hg4 mi
2:00 AM70 °FClear.6 mph23%30.04 "Hg4 mi
1:00 AM72 °FClear.7 mph22%30.04 "Hg5 mi
12:00 AM72 °FClear.5 mph22%30.07 "Hg5 mi
11:00 PM
Sun, Feb 7
73 °FClear.5 mph19%30.07 "Hg4 mi
10:00 PM75 °FClear.6 mph18%30.04 "Hg4 mi
9:00 PM77 °FClear.6 mph17%30.04 "Hg4 mi
8:00 PM81 °FDuststorm.6 mph13%30.01 "Hg3 mi
7:00 PM86 °FDuststorm.9 mph11%30.01 "Hg3 mi
Weather by CustomWeather, © 2016

See weather overviewHow to use our weather pages